Location: Unspecified
(58.7730°N, 5.8460°E)
Time: 22:40:14
(UTC+01:00)

Cosmos 2058 - Visible Passes

Search period start: 21 December 2014 00:00
Search period end: 31 December 2014 00:00
Orbit: 568 x 593 km, 82.5° (Epoch: 20 December)

Date Brightness Start Highest point End Pass type
(mag) Time Alt. Az. Time Alt. Az. Time Alt. Az.
21 Dec 4.4 07:36:08 10° N 07:39:58 35° ENE 07:43:47 10° SE visible
22 Dec 5.9 06:06:23 10° NE 06:07:00 10° NE 06:07:37 10° NE visible
22 Dec 4.0 07:41:14 10° N 07:45:13 44° ENE 07:49:11 10° SE visible
23 Dec 5.7 06:10:37 10° NNE 06:12:24 12° NE 06:14:10 10° ENE visible
23 Dec 3.5 07:46:21 10° N 07:50:26 56° ENE 07:54:30 10° SSE visible
24 Dec 5.6 06:15:21 10° NNE 06:17:45 15° NE 06:20:09 10° E visible
24 Dec 3.1 07:51:28 10° N 07:55:37 72° ENE 07:59:45 10° SSE visible
25 Dec 5.5 06:20:13 10° NNE 06:23:05 18° NE 06:25:56 10° E visible
25 Dec 2.9 07:56:37 10° NNW 08:00:47 89° WSW 08:04:55 10° S visible
26 Dec 5.2 06:25:09 10° N 06:28:23 21° ENE 06:31:36 10° ESE visible
26 Dec 2.9 08:01:47 10° NNW 08:05:54 70° W 08:10:01 10° S visible
27 Dec 4.9 06:30:08 10° N 06:33:39 26° ENE 06:37:09 10° ESE visible
27 Dec 3.1 08:06:57 10° NNW 08:11:00 54° W 08:15:02 10° S visible
28 Dec 4.6 06:35:08 10° N 06:38:53 32° ENE 06:42:37 10° SE visible
28 Dec 3.4 08:12:09 10° NNW 08:16:04 42° W 08:19:59 10° SSW visible
29 Dec 4.2 06:40:10 10° N 06:44:05 39° ENE 06:48:00 10° SE visible
29 Dec 3.7 08:17:23 10° NNW 08:21:07 33° W 08:24:50 10° SSW visible
30 Dec 5.9 05:09:49 10° NNE 05:11:08 11° NE 05:12:27 10° ENE visible
30 Dec 3.8 06:45:18 11° N 06:49:16 49° ENE 06:53:18 10° SSE visible
30 Dec 4.0 08:22:38 10° NNW 08:26:08 27° W 08:29:36 10° SW visible
